SL-8 DEB, 1634

Orbit data source: Space-Track

SL-8 DEB, 1634 is space debris in LEO originally from a launch on Mon, 15 Mar 1965 UTC launched from the Tyuratam Missile And Space Complex (TTMTR). Debris objects in space refer to the collection of defunct objects orbiting the Earth. Examples of debris include non-operational satellites, rocket bodies, and fragments generated from explosions, collisions, or faulty payload assembly.

Loading next visibility...
Identifier
1634, 1965-020ED
Orbit
LEO
Country
Flag of CISCIS
Related business
Manufacturer
Unknown
Mission
Spacecraft
Bus & Motor
Unknown
Mass
Unknown
Launch date (UTC)
1965-03-15 (61 years ago)
Launch vehicle
Unknown
Launch site
Tyuratam Missile And Space Complex (TTMTR)
Object type
Payload
Rocket body
Debris
Shape & HBR
Unknown shape, 0.1 m
Radar Cross Section
Medium (>0.1 m² and <1 m²)

Expand to show TLE details & history
Last TLE update: 2 days ago

TLE from 2 days ago
0 SL-8 DEB
1 01634U 65020ED  26172.76981571  .00000306  00000-0  70999-3 0  9995
2 01634  56.1550  51.1489 0855687  86.3274 283.4961 12.48556526763053
Epoch: 2026-06-21T18:28Z
TLE epoch observation values (Epoch: 2026-06-21T18:28:32.077Z)
Latitude
-0.00009°
Longitude
-135.95014°
Altitude
1,370.607 km
Speed
7.22 km/s
True Right ascension
03h 24m 35s
True Declination
0° 00' 00"
Sunlit
Object was in daylight at epoch
Visualization orbit readout
Latitude
Unknown
Longitude
Unknown
Altitude
Unknown
Speed
Unknown
Apparent Right ascension
Unknown
Apparent Declination
Unknown
Sunlit
N/A
Visualization observer readout
Local Sidereal Time
13:01:06
Azimuth
Unknown
Elevation
Unknown
Doppler factor
Unknown
Orbital elements
Apogee altitude
2,141.931 km
Perigee altitude
798.762 km
Semi-major axis
7,848.483 km
Eccentricity
0.08557
Inclination
56.155°
RAAN
51.1489°
Arg. of periapsis
86.3274°
True anomaly
273.76471°
Mean anomaly
283.4961°
Eccentric anomaly
278.64913°
Mean motion
3.12151 °/min
Orbital period
115.33 mins
BSTAR
0.00070999
Loading maneuver chart data...
Computing Atmospheric mass density...

Documentation

Showing up to 5 results
|